Time,TemperatureF,DewpointF,PressureIn,WindDirection,WindDirectionDegrees,WindSpeedMPH,WindSpeedGustMPH,Humidity,HourlyPrecipIn,Conditions,Clouds,dailyrainin,SoftwareType,DateUTC
2013-02-04 00:02:00,26.6,7.2,30.08,NNW,329,10.0,10.0,43,0.00,,,0.00,meteohub,2013-02-04 07:02:00,
2013-02-04 00:07:00,26.8,7.3,30.09,NNW,333,6.0,12.0,43,0.00,,,0.00,meteohub,2013-02-04 07:07:00,
2013-02-04 00:12:00,26.4,7.0,30.09,NW,324,5.0,13.0,43,0.00,,,0.00,meteohub,2013-02-04 07:12:00,
2013-02-04 00:17:00,25.7,6.8,30.09,NW,322,11.0,13.0,44,0.00,,,0.00,meteohub,2013-02-04 07:17:00,
2013-02-04 00:22:00,25.9,6.4,30.08,NNW,328,7.0,13.0,43,0.00,,,0.00,meteohub,2013-02-04 07:22:00,
2013-02-04 00:27:00,26.1,6.6,30.08,NNW,329,7.0,13.0,43,0.00,,,0.00,meteohub,2013-02-04 07:27:00,
2013-02-04 00:32:00,26.1,6.6,30.09,NW,315,3.0,13.0,43,0.00,,,0.00,meteohub,2013-02-04 07:32:00,
2013-02-04 00:37:00,26.1,6.6,30.09,NNW,340,3.0,13.0,43,0.00,,,0.00,meteohub,2013-02-04 07:37:00,
2013-02-04 00:42:00,26.2,6.8,30.10,NW,315,5.0,10.0,43,0.00,,,0.00,meteohub,2013-02-04 07:42:00,
2013-02-04 00:47:00,25.9,6.4,30.10,NW,325,5.0,7.0,43,0.00,,,0.00,meteohub,2013-02-04 07:47:00,
2013-02-04 00:52:00,25.5,6.6,30.10,NW,314,4.0,7.0,44,0.00,,,0.00,meteohub,2013-02-04 07:52:00,
2013-02-04 00:57:00,25.5,6.1,30.09,NW,322,3.0,7.0,43,0.00,,,0.00,meteohub,2013-02-04 07:57:00,
2013-02-04 01:02:00,26.2,5.7,30.09,WNW,302,3.0,7.0,41,0.00,,,0.00,meteohub,2013-02-04 08:02:00,
2013-02-04 01:07:00,26.2,5.2,30.10,SW,231,2.0,7.0,40,0.00,,,0.00,meteohub,2013-02-04 08:07:00,
2013-02-04 01:12:00,25.9,4.8,30.10,South,191,2.0,6.0,40,0.00,,,0.00,meteohub,2013-02-04 08:12:00,
2013-02-04 01:17:00,25.9,5.9,30.10,SSE,150,1.0,6.0,42,0.00,,,0.00,meteohub,2013-02-04 08:17:00,
2013-02-04 01:22:00,25.9,6.4,30.10,SE,142,0.0,5.0,43,0.00,,,0.00,meteohub,2013-02-04 08:22:00,
2013-02-04 01:27:00,25.5,6.1,30.11,SW,224,0.0,4.0,43,0.00,,,0.00,meteohub,2013-02-04 08:27:00,
2013-02-04 01:32:00,25.3,6.4,30.11,South,188,3.0,3.0,44,0.00,,,0.00,meteohub,2013-02-04 08:32:00,
2013-02-04 01:37:00,25.5,6.6,30.10,SSE,159,1.0,4.0,44,0.00,,,0.00,meteohub,2013-02-04 08:37:00,
2013-02-04 01:42:00,25.9,6.4,30.10,South,191,0.0,4.0,43,0.00,,,0.00,meteohub,2013-02-04 08:42:00,
2013-02-04 01:47:00,25.5,6.1,30.10,SSE,162,2.0,4.0,43,0.00,,,0.00,meteohub,2013-02-04 08:47:00,
2013-02-04 01:52:00,25.7,6.3,30.10,SE,134,1.0,3.0,43,0.00,,,0.00,meteohub,2013-02-04 08:52:00,
2013-02-04 01:57:00,25.3,5.9,30.10,SE,139,2.0,3.0,43,0.00,,,0.00,meteohub,2013-02-04 08:57:00,
2013-02-04 02:02:00,25.2,6.3,30.10,ESE,123,3.0,4.0,44,0.00,,,0.00,meteohub,2013-02-04 09:02:00,
2013-02-04 02:07:00,24.1,5.7,30.10,SSE,155,2.0,5.0,45,0.00,,,0.00,meteohub,2013-02-04 09:07:00,
2013-02-04 02:12:00,23.4,6.1,30.10,East,91,1.0,5.0,47,0.00,,,0.00,meteohub,2013-02-04 09:12:00,
2013-02-04 02:17:00,23.7,5.9,30.10,NE,53,1.0,5.0,46,0.00,,,0.00,meteohub,2013-02-04 09:17:00,
2013-02-04 02:22:00,23.5,5.7,30.11,NNE,13,1.0,3.0,46,0.00,,,0.00,meteohub,2013-02-04 09:22:00,
2013-02-04 02:27:00,23.5,6.3,30.10,NNW,335,1.0,3.0,47,0.00,,,0.00,meteohub,2013-02-04 09:27:00,
2013-02-04 02:32:00,23.4,6.1,30.10,NW,319,1.0,3.0,47,0.00,,,0.00,meteohub,2013-02-04 09:32:00,
2013-02-04 02:37:00,23.4,6.1,30.10,NW,311,1.0,3.0,47,0.00,,,0.00,meteohub,2013-02-04 09:37:00,
2013-02-04 02:42:00,23.4,6.1,30.11,WNW,290,0.0,3.0,47,0.00,,,0.00,meteohub,2013-02-04 09:42:00,
2013-02-04 02:47:00,23.5,6.3,30.10,NNE,27,1.0,3.0,47,0.00,,,0.00,meteohub,2013-02-04 09:47:00,
2013-02-04 02:52:00,23.5,5.7,30.10,NNW,345,1.0,3.0,46,0.00,,,0.00,meteohub,2013-02-04 09:52:00,
2013-02-04 02:57:00,23.2,5.9,30.10,NNW,337,1.0,3.0,47,0.00,,,0.00,meteohub,2013-02-04 09:57:00,
2013-02-04 03:02:00,22.8,5.5,30.10,NNW,330,2.0,4.0,47,0.00,,,0.00,meteohub,2013-02-04 10:02:00,
2013-02-04 03:07:00,22.6,5.4,30.11,NNW,347,4.0,4.0,47,0.00,,,0.00,meteohub,2013-02-04 10:07:00,
2013-02-04 03:12:00,22.3,5.2,30.11,NNW,330,4.0,6.0,47,0.00,,,0.00,meteohub,2013-02-04 10:12:00,
2013-02-04 03:17:00,21.9,4.8,30.11,North,6,3.0,6.0,47,0.00,,,0.00,meteohub,2013-02-04 10:17:00,
2013-02-04 03:22:00,21.6,4.8,30.11,NNW,342,3.0,6.0,48,0.00,,,0.00,meteohub,2013-02-04 10:22:00,
2013-02-04 03:27:00,21.4,4.8,30.11,NNW,328,2.0,6.0,48,0.00,,,0.00,meteohub,2013-02-04 10:27:00,
2013-02-04 03:32:00,21.4,4.8,30.11,NW,322,0.0,5.0,48,0.00,,,0.00,meteohub,2013-02-04 10:32:00,
2013-02-04 03:37:00,21.4,4.8,30.11,NW,318,2.0,5.0,48,0.00,,,0.00,meteohub,2013-02-04 10:37:00,
2013-02-04 03:42:00,21.2,4.6,30.11,NW,324,3.0,4.0,48,0.00,,,0.00,meteohub,2013-02-04 10:42:00,
2013-02-04 03:47:00,21.6,4.5,30.11,NW,323,2.0,4.0,47,0.00,,,0.00,meteohub,2013-02-04 10:47:00,
2013-02-04 03:52:00,21.6,4.8,30.11,NNW,330,2.0,4.0,48,0.00,,,0.00,meteohub,2013-02-04 10:52:00,
2013-02-04 03:57:00,21.9,4.3,30.11,WNW,300,1.0,4.0,46,0.00,,,0.00,meteohub,2013-02-04 10:57:00,
2013-02-04 04:02:00,21.9,3.7,30.11,NNW,328,2.0,4.0,45,0.00,,,0.00,meteohub,2013-02-04 11:02:00,
2013-02-04 04:07:00,21.9,4.3,30.12,WNW,298,0.0,4.0,46,0.00,,,0.00,meteohub,2013-02-04 11:07:00,
2013-02-04 04:12:00,21.7,3.7,30.12,NNW,342,0.0,3.0,45,0.00,,,0.00,meteohub,2013-02-04 11:12:00,
2013-02-04 04:17:00,21.6,3.6,30.12,NNW,330,1.0,3.0,45,0.00,,,0.00,meteohub,2013-02-04 11:17:00,
2013-02-04 04:22:00,21.7,2.7,30.12,West,276,1.0,1.0,43,0.00,,,0.00,meteohub,2013-02-04 11:22:00,
2013-02-04 04:27:00,23.4,3.2,30.12,WSW,238,0.0,3.0,41,0.00,,,0.00,meteohub,2013-02-04 11:27:00,
2013-02-04 04:32:00,23.5,2.8,30.12,WSW,238,0.0,3.0,40,0.00,,,0.00,meteohub,2013-02-04 11:32:00,
2013-02-04 04:37:00,23.5,2.8,30.12,North,358,2.0,3.0,40,0.00,,,0.00,meteohub,2013-02-04 11:37:00,
2013-02-04 04:42:00,23.2,3.0,30.12,NNW,328,2.0,3.0,41,0.00,,,0.00,meteohub,2013-02-04 11:42:00,
2013-02-04 04:47:00,23.2,3.0,30.12,NW,314,1.0,3.0,41,0.00,,,0.00,meteohub,2013-02-04 11:47:00,
2013-02-04 04:52:00,23.2,3.0,30.12,NW,316,2.0,3.0,41,0.00,,,0.00,meteohub,2013-02-04 11:52:00,
2013-02-04 04:57:00,23.0,2.8,30.12,North,11,1.0,3.0,41,0.00,,,0.00,meteohub,2013-02-04 11:57:00,
2013-02-04 05:02:00,22.6,3.0,30.12,NNE,26,2.0,3.0,42,0.00,,,0.00,meteohub,2013-02-04 12:02:00,
2013-02-04 05:07:00,22.5,2.8,30.12,North,8,1.0,3.0,42,0.00,,,0.00,meteohub,2013-02-04 12:07:00,
2013-02-04 05:12:00,22.3,2.7,30.12,North,8,0.0,3.0,42,0.00,,,0.00,meteohub,2013-02-04 12:12:00,
2013-02-04 05:17:00,21.9,2.8,30.12,NNE,24,0.0,3.0,43,0.00,,,0.00,meteohub,2013-02-04 12:17:00,
2013-02-04 05:22:00,21.9,2.8,30.12,NNW,328,1.0,3.0,43,0.00,,,0.00,meteohub,2013-02-04 12:22:00,
2013-02-04 05:27:00,21.9,2.8,30.12,WNW,295,1.0,2.0,43,0.00,,,0.00,meteohub,2013-02-04 12:27:00,
2013-02-04 05:32:00,21.9,2.8,30.12,NNW,330,0.0,2.0,43,0.00,,,0.00,meteohub,2013-02-04 12:32:00,
2013-02-04 05:37:00,21.7,2.7,30.12,NW,323,4.0,4.0,43,0.00,,,0.00,meteohub,2013-02-04 12:37:00,
2013-02-04 05:42:00,21.6,3.0,30.12,NW,326,3.0,4.0,44,0.00,,,0.00,meteohub,2013-02-04 12:42:00,
2013-02-04 05:47:00,21.4,2.8,30.12,NNW,338,4.0,5.0,44,0.00,,,0.00,meteohub,2013-02-04 12:47:00,
2013-02-04 05:52:00,21.0,3.0,30.12,NNW,333,4.0,6.0,45,0.00,,,0.00,meteohub,2013-02-04 12:52:00,
2013-02-04 05:57:00,21.0,3.0,30.12,NNW,333,4.0,6.0,45,0.00,,,0.00,meteohub,2013-02-04 12:57:00,
2013-02-04 06:02:00,21.2,3.2,30.12,NNW,330,6.0,6.0,45,0.00,,,0.00,meteohub,2013-02-04 13:02:00,
2013-02-04 06:07:00,20.8,2.8,30.12,NNW,340,4.0,6.0,45,0.00,,,0.00,meteohub,2013-02-04 13:07:00,
2013-02-04 06:13:00,20.1,2.7,30.12,NNW,335,4.0,6.0,46,0.00,,,0.00,meteohub,2013-02-04 13:13:00,
2013-02-04 06:18:00,19.8,2.8,30.12,NNW,332,3.0,6.0,47,0.00,,,0.00,meteohub,2013-02-04 13:18:00,
2013-02-04 06:24:00,19.2,2.7,30.12,NNW,328,1.0,6.0,48,0.00,,,0.00,meteohub,2013-02-04 13:24:00,
2013-02-04 06:30:00,19.2,2.7,30.13,NNW,337,2.0,6.0,48,0.00,,,0.00,meteohub,2013-02-04 13:30:00,
2013-02-04 06:35:00,19.2,2.7,30.13,NW,325,2.0,4.0,48,0.00,,,0.00,meteohub,2013-02-04 13:35:00,
2013-02-04 06:41:00,18.9,2.5,30.13,NNW,333,3.0,4.0,48,0.00,,,0.00,meteohub,2013-02-04 13:41:00,
2013-02-04 06:46:00,18.9,2.8,30.13,NNW,328,4.0,5.0,49,0.00,,,0.00,meteohub,2013-02-04 13:46:00,
2013-02-04 06:51:00,19.6,3.0,30.13,NW,317,2.0,5.0,48,0.00,,,0.00,meteohub,2013-02-04 13:51:00,
2013-02-04 06:57:00,19.8,2.8,30.13,NNW,332,8.0,8.0,47,0.00,,,0.00,meteohub,2013-02-04 13:57:00,
2013-02-04 07:02:00,20.1,2.1,30.14,NNW,338,8.0,8.0,45,0.00,,,0.00,meteohub,2013-02-04 14:02:00,
2013-02-04 07:07:00,19.9,2.5,30.14,NNW,328,6.0,9.0,46,0.00,,,0.00,meteohub,2013-02-04 14:07:00,
2013-02-04 07:12:00,19.9,1.9,30.14,NW,322,7.0,9.0,45,0.00,,,0.00,meteohub,2013-02-04 14:12:00,
2013-02-04 07:17:00,19.8,2.3,30.14,NNW,335,9.0,9.0,46,0.00,,,0.00,meteohub,2013-02-04 14:17:00,
2013-02-04 07:22:00,19.8,1.8,30.14,NNW,328,6.0,10.0,45,0.00,,,0.00,meteohub,2013-02-04 14:22:00,
2013-02-04 07:27:00,19.8,2.3,30.14,NNW,328,5.0,10.0,46,0.00,,,0.00,meteohub,2013-02-04 14:27:00,
2013-02-04 07:32:00,19.6,2.1,30.14,NW,326,4.0,10.0,46,0.00,,,0.00,meteohub,2013-02-04 14:32:00,
2013-02-04 07:37:00,19.6,2.1,30.14,NNW,330,3.0,8.0,46,0.00,,,0.00,meteohub,2013-02-04 14:37:00,
2013-02-04 07:42:00,19.6,1.8,30.14,NNW,328,3.0,7.0,45,0.00,,,0.00,meteohub,2013-02-04 14:42:00,
2013-02-04 07:47:00,19.8,1.8,30.14,NW,323,4.0,6.0,45,0.00,,,0.00,meteohub,2013-02-04 14:47:00,
2013-02-04 07:52:00,20.5,1.9,30.14,North,9,3.0,6.0,44,0.00,,,0.00,meteohub,2013-02-04 14:52:00,
2013-02-04 07:57:00,20.8,2.3,30.14,NNW,335,3.0,6.0,44,0.00,,,0.00,meteohub,2013-02-04 14:57:00,
2013-02-04 08:02:00,21.0,1.9,30.14,NNW,333,2.0,6.0,43,0.00,,,0.00,meteohub,2013-02-04 15:02:00,
2013-02-04 08:07:00,21.2,2.1,30.14,NNE,18,3.0,5.0,43,0.00,,,0.00,meteohub,2013-02-04 15:07:00,
2013-02-04 08:12:00,21.2,2.7,30.14,NNW,329,3.0,5.0,44,0.00,,,0.00,meteohub,2013-02-04 15:12:00,
2013-02-04 08:17:00,21.4,3.4,30.15,NNW,328,6.0,6.0,45,0.00,,,0.00,meteohub,2013-02-04 15:17:00,
2013-02-04 08:22:00,21.9,2.8,30.15,NNW,333,7.0,7.0,43,0.00,,,0.00,meteohub,2013-02-04 15:22:00,
2013-02-04 08:27:00,22.3,2.7,30.15,NNW,328,7.0,10.0,42,0.00,,,0.00,meteohub,2013-02-04 15:27:00,
2013-02-04 08:32:00,22.6,3.6,30.15,NNW,327,4.0,10.0,43,0.00,,,0.00,meteohub,2013-02-04 15:32:00,
2013-02-04 08:37:00,22.8,3.2,30.15,NW,315,2.0,10.0,42,0.00,,,0.00,meteohub,2013-02-04 15:37:00,
2013-02-04 08:42:00,23.4,3.2,30.15,NW,316,8.0,9.0,41,0.00,,,0.00,meteohub,2013-02-04 15:42:00,
2013-02-04 08:47:00,24.1,3.2,30.15,NW,322,6.0,9.0,40,0.00,,,0.00,meteohub,2013-02-04 15:47:00,
2013-02-04 08:52:00,24.4,3.6,30.15,NW,325,5.0,9.0,40,0.00,,,0.00,meteohub,2013-02-04 15:52:00,
2013-02-04 08:57:00,25.0,3.6,30.15,North,354,6.0,9.0,39,0.00,,,0.00,meteohub,2013-02-04 15:57:00,
2013-02-04 09:02:00,25.2,3.7,30.14,NNW,330,3.0,9.0,39,0.00,,,0.00,meteohub,2013-02-04 16:02:00,
2013-02-04 09:07:00,25.3,3.9,30.14,NW,323,5.0,9.0,39,0.00,,,0.00,meteohub,2013-02-04 16:07:00,
2013-02-04 09:12:00,25.9,4.3,30.14,NW,323,4.0,9.0,39,0.00,,,0.00,meteohub,2013-02-04 16:12:00,
2013-02-04 09:17:00,26.2,3.6,30.14,NNE,27,4.0,8.0,37,0.00,,,0.00,meteohub,2013-02-04 16:17:00,
2013-02-04 09:22:00,26.4,2.5,30.14,North,357,2.0,6.0,35,0.00,,,0.00,meteohub,2013-02-04 16:22:00,
2013-02-04 09:27:00,26.8,2.1,30.13,North,354,2.0,6.0,34,0.00,,,0.00,meteohub,2013-02-04 16:27:00,
2013-02-04 09:32:00,27.3,2.7,30.13,NNE,18,0.0,6.0,34,0.00,,,0.00,meteohub,2013-02-04 16:32:00,
2013-02-04 09:37:00,28.2,4.1,30.13,NNE,12,1.0,3.0,35,0.00,,,0.00,meteohub,2013-02-04 16:37:00,
2013-02-04 09:42:00,28.8,3.2,30.13,NNE,30,2.0,3.0,33,0.00,,,0.00,meteohub,2013-02-04 16:42:00,
2013-02-04 09:47:00,29.1,2.3,30.13,NE,48,4.0,4.0,31,0.00,,,0.00,meteohub,2013-02-04 16:47:00,
2013-02-04 09:52:00,29.8,1.4,30.13,North,1,2.0,4.0,29,0.00,,,0.00,meteohub,2013-02-04 16:52:00,
2013-02-04 09:57:00,30.2,1.0,30.12,NE,40,3.0,4.0,28,0.00,,,0.00,meteohub,2013-02-04 16:57:00,
2013-02-04 10:02:00,30.4,1.2,30.12,NE,54,4.0,5.0,28,0.00,,,0.00,meteohub,2013-02-04 17:02:00,
2013-02-04 10:07:00,30.7,1.4,30.12,NE,46,3.0,5.0,28,0.00,,,0.00,meteohub,2013-02-04 17:07:00,
2013-02-04 10:12:00,30.9,0.9,30.12,NW,309,1.0,5.0,27,0.00,,,0.00,meteohub,2013-02-04 17:12:00,
2013-02-04 10:17:00,31.8,1.6,30.12,NE,36,0.0,5.0,27,0.00,,,0.00,meteohub,2013-02-04 17:17:00,
2013-02-04 10:22:00,32.4,2.1,30.12,ENE,60,1.0,6.0,27,0.00,,,0.00,meteohub,2013-02-04 17:22:00,
2013-02-04 10:27:00,32.5,1.4,30.12,North,8,1.0,6.0,26,0.00,,,0.00,meteohub,2013-02-04 17:27:00,
2013-02-04 10:32:00,32.9,1.8,30.12,NE,44,1.0,5.0,26,0.00,,,0.00,meteohub,2013-02-04 17:32:00,
2013-02-04 10:37:00,33.1,1.9,30.12,NNE,21,2.0,5.0,26,0.00,,,0.00,meteohub,2013-02-04 17:37:00,
2013-02-04 10:42:00,33.6,3.2,30.11,ENE,62,3.0,5.0,27,0.00,,,0.00,meteohub,2013-02-04 17:42:00,
2013-02-04 10:47:00,33.8,2.5,30.11,NE,47,2.0,6.0,26,0.00,,,0.00,meteohub,2013-02-04 17:47:00,
2013-02-04 10:52:00,34.5,2.3,30.11,ESE,108,2.0,7.0,25,0.00,,,0.00,meteohub,2013-02-04 17:52:00,
2013-02-04 10:57:00,35.8,2.5,30.11,East,79,3.0,7.0,24,0.00,,,0.00,meteohub,2013-02-04 17:57:00,
2013-02-04 11:02:00,36.1,2.8,30.10,ESE,103,4.0,6.0,24,0.00,,,0.00,meteohub,2013-02-04 18:02:00,
2013-02-04 11:07:00,36.5,3.2,30.10,SE,144,1.0,8.0,24,0.00,,,0.00,meteohub,2013-02-04 18:07:00,
2013-02-04 11:12:00,36.5,3.2,30.09,ENE,62,3.0,8.0,24,0.00,,,0.00,meteohub,2013-02-04 18:12:00,
2013-02-04 11:17:00,37.0,3.6,30.09,SSW,195,0.0,8.0,24,0.00,,,0.00,meteohub,2013-02-04 18:17:00,
2013-02-04 11:22:00,37.6,4.1,30.09,NW,315,2.0,6.0,24,0.00,,,0.00,meteohub,2013-02-04 18:22:00,
2013-02-04 11:27:00,37.6,3.2,30.09,NE,49,3.0,7.0,23,0.00,,,0.00,meteohub,2013-02-04 18:27:00,
2013-02-04 11:32:00,37.6,3.2,30.08,NE,54,3.0,7.0,23,0.00,,,0.00,meteohub,2013-02-04 18:32:00,
2013-02-04 11:37:00,37.8,4.3,30.08,East,89,2.0,7.0,24,0.00,,,0.00,meteohub,2013-02-04 18:37:00,
2013-02-04 11:42:00,38.3,3.7,30.08,NE,41,4.0,7.0,23,0.00,,,0.00,meteohub,2013-02-04 18:42:00,
2013-02-04 11:47:00,38.5,3.9,30.07,NNW,330,3.0,7.0,23,0.00,,,0.00,meteohub,2013-02-04 18:47:00,
2013-02-04 11:52:00,38.1,2.7,30.06,NNE,19,3.0,7.0,22,0.00,,,0.00,meteohub,2013-02-04 18:52:00,
2013-02-04 11:57:00,38.3,3.7,30.06,NE,34,3.0,7.0,23,0.00,,,0.00,meteohub,2013-02-04 18:57:00,
2013-02-04 12:02:00,38.7,4.1,30.06,NNE,23,3.0,10.0,23,0.00,,,0.00,meteohub,2013-02-04 19:02:00,
2013-02-04 12:07:00,39.0,3.4,30.05,NE,34,2.0,10.0,22,0.00,,,0.00,meteohub,2013-02-04 19:07:00,
2013-02-04 12:12:00,39.6,3.9,30.05,East,90,4.0,10.0,22,0.00,,,0.00,meteohub,2013-02-04 19:12:00,
2013-02-04 12:18:00,40.3,3.4,30.05,NE,44,1.0,9.0,21,0.00,,,0.00,meteohub,2013-02-04 19:18:00,
2013-02-04 12:23:00,40.3,3.4,30.04,NNE,25,3.0,9.0,21,0.00,,,0.00,meteohub,2013-02-04 19:23:00,
2013-02-04 12:29:00,40.8,3.9,30.04,NNE,32,5.0,9.0,21,0.00,,,0.00,meteohub,2013-02-04 19:29:00,
2013-02-04 12:34:00,40.5,1.4,30.04,NNE,30,1.0,8.0,19,0.00,,,0.00,meteohub,2013-02-04 19:34:00,
2013-02-04 12:40:00,41.5,2.3,30.03,NW,314,1.0,8.0,19,0.00,,,0.00,meteohub,2013-02-04 19:40:00,
2013-02-04 12:45:00,41.4,2.1,30.03,NNW,338,3.0,11.0,19,0.00,,,0.00,meteohub,2013-02-04 19:45:00,
2013-02-04 12:51:00,40.8,1.8,30.03,East,82,2.0,11.0,19,0.00,,,0.00,meteohub,2013-02-04 19:51:00,
2013-02-04 12:56:00,41.2,1.9,30.03,NNW,328,3.0,11.0,19,0.00,,,0.00,meteohub,2013-02-04 19:56:00,
2013-02-04 13:02:00,41.7,2.5,30.02,NW,326,5.0,9.0,19,0.00,,,0.00,meteohub,2013-02-04 20:02:00,
2013-02-04 13:07:00,41.4,1.0,30.02,NE,49,4.0,8.0,18,0.00,,,0.00,meteohub,2013-02-04 20:07:00,
2013-02-04 13:12:00,41.5,1.2,30.02,ENE,58,6.0,8.0,18,0.00,,,0.00,meteohub,2013-02-04 20:12:00,
2013-02-04 13:17:00,42.1,0.3,30.02,NE,47,6.0,8.0,17,0.00,,,0.00,meteohub,2013-02-04 20:17:00,
2013-02-04 13:22:00,42.1,0.3,30.01,ENE,60,6.0,9.0,17,0.00,,,0.00,meteohub,2013-02-04 20:22:00,
2013-02-04 13:27:00,42.8,2.1,30.02,NE,42,2.0,9.0,18,0.00,,,0.00,meteohub,2013-02-04 20:27:00,
2013-02-04 13:32:00,43.3,0.1,30.01,ESE,104,0.0,9.0,16,0.00,,,0.00,meteohub,2013-02-04 20:32:00,
2013-02-04 13:37:00,43.5,0.3,30.01,NNW,336,3.0,9.0,16,0.00,,,0.00,meteohub,2013-02-04 20:37:00,
2013-02-04 13:42:00,43.5,0.3,30.01,NNE,20,5.0,7.0,16,0.00,,,0.00,meteohub,2013-02-04 20:42:00,
2013-02-04 13:47:00,43.2,0.0,30.01,WNW,303,2.0,8.0,16,0.00,,,0.00,meteohub,2013-02-04 20:47:00,
2013-02-04 13:52:00,44.2,0.9,30.00,WNW,283,1.0,8.0,16,0.00,,,0.00,meteohub,2013-02-04 20:52:00,
2013-02-04 13:58:00,44.2,-0.6,30.00,North,352,5.0,8.0,15,0.00,,,0.00,meteohub,2013-02-04 20:58:00,
2013-02-04 14:03:00,44.1,0.7,30.00,WNW,300,2.0,9.0,16,0.00,,,0.00,meteohub,2013-02-04 21:03:00,
2013-02-04 14:09:00,44.8,1.2,30.00,NW,319,2.0,9.0,16,0.00,,,0.00,meteohub,2013-02-04 21:09:00,
2013-02-04 14:14:00,44.6,1.2,30.00,North,7,4.0,7.0,16,0.00,,,0.00,meteohub,2013-02-04 21:14:00,
2013-02-04 14:20:00,45.0,1.4,30.00,NW,321,6.0,10.0,16,0.00,,,0.00,meteohub,2013-02-04 21:20:00,
2013-02-04 14:25:00,45.1,0.1,30.00,NW,323,4.0,14.0,15,0.00,,,0.00,meteohub,2013-02-04 21:25:00,
2013-02-04 14:31:00,45.0,0.1,30.00,North,4,3.0,14.0,15,0.00,,,0.00,meteohub,2013-02-04 21:31:00,
2013-02-04 14:36:00,45.1,1.6,30.00,West,267,2.0,13.0,16,0.00,,,0.00,meteohub,2013-02-04 21:36:00,
2013-02-04 14:42:00,45.3,0.3,29.99,West,263,8.0,12.0,15,0.00,,,0.00,meteohub,2013-02-04 21:42:00,
2013-02-04 14:47:00,45.3,1.8,29.99,NNW,338,8.0,12.0,16,0.00,,,0.00,meteohub,2013-02-04 21:47:00,
2013-02-04 14:52:00,45.1,0.1,29.99,NW,320,4.0,12.0,15,0.00,,,0.00,meteohub,2013-02-04 21:52:00,
2013-02-04 14:57:00,45.1,0.1,29.99,NNW,332,2.0,13.0,15,0.00,,,0.00,meteohub,2013-02-04 21:57:00,
2013-02-04 15:02:00,45.0,1.4,29.99,NW,323,9.0,14.0,16,0.00,,,0.00,meteohub,2013-02-04 22:02:00,
2013-02-04 15:07:00,45.1,1.6,29.99,NNW,329,4.0,14.0,16,0.00,,,0.00,meteohub,2013-02-04 22:07:00,
2013-02-04 15:12:00,45.1,0.1,29.99,WNW,283,5.0,14.0,15,0.00,,,0.00,meteohub,2013-02-04 22:12:00,
2013-02-04 15:18:00,45.0,1.4,29.99,West,281,2.0,14.0,16,0.00,,,0.00,meteohub,2013-02-04 22:18:00,
2013-02-04 15:23:00,44.8,2.7,29.99,NW,319,6.0,15.0,17,0.00,,,0.00,meteohub,2013-02-04 22:23:00,
2013-02-04 15:29:00,45.0,2.7,30.00,NW,323,4.0,15.0,17,0.00,,,0.00,meteohub,2013-02-04 22:29:00,
2013-02-04 15:34:00,44.6,2.5,30.00,WNW,296,5.0,15.0,17,0.00,,,0.00,meteohub,2013-02-04 22:34:00,
2013-02-04 15:40:00,45.0,3.9,30.00,NW,314,3.0,12.0,18,0.00,,,0.00,meteohub,2013-02-04 22:40:00,
2013-02-04 15:45:00,44.4,3.6,30.00,NW,320,8.0,11.0,18,0.00,,,0.00,meteohub,2013-02-04 22:45:00,
2013-02-04 15:51:00,44.6,2.5,30.00,NW,312,5.0,9.0,17,0.00,,,0.00,meteohub,2013-02-04 22:51:00,
2013-02-04 15:56:00,44.2,3.4,30.00,NNW,337,6.0,15.0,18,0.00,,,0.00,meteohub,2013-02-04 22:56:00,
2013-02-04 16:02:00,44.1,3.2,30.00,NW,312,5.0,15.0,18,0.00,,,0.00,meteohub,2013-02-04 23:02:00,
2013-02-04 16:07:00,43.9,3.0,30.00,NNW,345,8.0,15.0,18,0.00,,,0.00,meteohub,2013-02-04 23:07:00,
2013-02-04 16:12:00,43.7,3.0,30.00,NW,314,6.0,15.0,18,0.00,,,0.00,meteohub,2013-02-04 23:12:00,
2013-02-04 16:17:00,43.7,3.0,30.00,WNW,298,6.0,15.0,18,0.00,,,0.00,meteohub,2013-02-04 23:17:00,
2013-02-04 16:22:00,43.5,2.8,30.00,NNW,334,8.0,12.0,18,0.00,,,0.00,meteohub,2013-02-04 23:22:00,
2013-02-04 16:27:00,43.3,2.7,30.00,WNW,290,9.0,11.0,18,0.00,,,0.00,meteohub,2013-02-04 23:27:00,
2013-02-04 16:32:00,42.8,1.0,30.00,NW,325,9.0,15.0,17,0.00,,,0.00,meteohub,2013-02-04 23:32:00,
2013-02-04 16:37:00,42.3,1.8,30.00,NW,307,4.0,17.0,18,0.00,,,0.00,meteohub,2013-02-04 23:37:00,
2013-02-04 16:42:00,42.1,1.6,30.00,NW,319,6.0,17.0,18,0.00,,,0.00,meteohub,2013-02-04 23:42:00,
2013-02-04 16:47:00,41.4,2.1,30.00,NW,321,0.0,13.0,19,0.00,,,0.00,meteohub,2013-02-04 23:47:00,
2013-02-04 16:52:00,40.8,2.8,30.00,NW,319,4.0,12.0,20,0.00,,,0.00,meteohub,2013-02-04 23:52:00,
2013-02-04 16:57:00,40.3,2.3,30.01,NNW,331,6.0,11.0,20,0.00,,,0.00,meteohub,2013-02-04 23:57:00,
2013-02-04 17:02:00,39.9,2.1,30.01,NW,321,1.0,11.0,20,0.00,,,0.00,meteohub,2013-02-05 00:02:00,
2013-02-04 17:07:00,39.9,2.1,30.00,NNE,12,6.0,14.0,20,0.00,,,0.00,meteohub,2013-02-05 00:07:00,
2013-02-04 17:12:00,39.7,1.9,30.01,NNW,340,7.0,17.0,20,0.00,,,0.00,meteohub,2013-02-05 00:12:00,
2013-02-04 17:17:00,39.7,0.9,30.01,NW,324,8.0,17.0,19,0.00,,,0.00,meteohub,2013-02-05 00:17:00,
2013-02-04 17:22:00,40.1,1.0,30.01,NW,320,10.0,18.0,19,0.00,,,0.00,meteohub,2013-02-05 00:22:00,
2013-02-04 17:27:00,40.1,1.0,30.02,NNW,331,20.0,20.0,19,0.00,,,0.00,meteohub,2013-02-05 00:27:00,
2013-02-04 17:32:00,40.3,1.2,30.02,NNW,333,8.0,22.0,19,0.00,,,0.00,meteohub,2013-02-05 00:32:00,
2013-02-04 17:37:00,40.3,0.1,30.02,NW,314,10.0,22.0,18,0.00,,,0.00,meteohub,2013-02-05 00:37:00,
2013-02-04 17:42:00,39.9,1.0,30.02,NW,319,18.0,23.0,19,0.00,,,0.00,meteohub,2013-02-05 00:42:00,
2013-02-04 17:47:00,39.7,0.9,30.02,NW,314,11.0,23.0,19,0.00,,,0.00,meteohub,2013-02-05 00:47:00,
2013-02-04 17:52:00,39.7,0.9,30.03,NNW,337,7.0,18.0,19,0.00,,,0.00,meteohub,2013-02-05 00:52:00,
2013-02-04 17:57:00,39.6,0.7,30.03,NNW,332,9.0,18.0,19,0.00,,,0.00,meteohub,2013-02-05 00:57:00,
2013-02-04 18:02:00,39.0,0.1,30.04,North,355,9.0,16.0,19,0.00,,,0.00,meteohub,2013-02-05 01:02:00,
2013-02-04 18:07:00,38.8,1.2,30.04,NW,321,9.0,22.0,20,0.00,,,0.00,meteohub,2013-02-05 01:07:00,
2013-02-04 18:12:00,38.8,1.2,30.04,North,359,14.0,22.0,20,0.00,,,0.00,meteohub,2013-02-05 01:12:00,
2013-02-04 18:17:00,38.5,0.9,30.04,WNW,293,14.0,22.0,20,0.00,,,0.00,meteohub,2013-02-05 01:17:00,
2013-02-04 18:22:00,38.5,0.9,30.04,WNW,300,10.0,22.0,20,0.00,,,0.00,meteohub,2013-02-05 01:22:00,
2013-02-04 18:27:00,38.1,1.6,30.04,WNW,293,5.0,21.0,21,0.00,,,0.00,meteohub,2013-02-05 01:27:00,
2013-02-04 18:33:00,37.8,1.4,30.05,NNW,328,9.0,21.0,21,0.00,,,0.00,meteohub,2013-02-05 01:33:00,
2013-02-04 18:38:00,37.6,2.1,30.05,NW,322,6.0,23.0,22,0.00,,,0.00,meteohub,2013-02-05 01:38:00,
2013-02-04 18:44:00,37.0,1.8,30.06,NNW,331,7.0,23.0,22,0.00,,,0.00,meteohub,2013-02-05 01:44:00,
2013-02-04 18:49:00,36.7,1.4,30.06,NNW,328,10.0,23.0,22,0.00,,,0.00,meteohub,2013-02-05 01:49:00,
2013-02-04 18:55:00,36.7,1.4,30.07,NW,325,11.0,16.0,22,0.00,,,0.00,meteohub,2013-02-05 01:55:00,
2013-02-04 19:00:00,36.1,2.8,30.08,NNW,333,5.0,15.0,24,0.00,,,0.00,meteohub,2013-02-05 02:00:00,
2013-02-04 19:06:00,35.4,2.1,30.08,NE,42,8.0,14.0,24,0.00,,,0.00,meteohub,2013-02-05 02:06:00,
2013-02-04 19:11:00,35.1,2.8,30.08,NNW,338,7.0,14.0,25,0.00,,,0.00,meteohub,2013-02-05 02:11:00,
2013-02-04 19:17:00,34.9,2.7,30.08,NNW,337,7.0,14.0,25,0.00,,,0.00,meteohub,2013-02-05 02:17:00,
2013-02-04 19:22:00,34.7,2.5,30.08,NNE,18,7.0,12.0,25,0.00,,,0.00,meteohub,2013-02-05 02:22:00,
2013-02-04 19:27:00,34.5,2.3,30.08,NNE,18,8.0,12.0,25,0.00,,,0.00,meteohub,2013-02-05 02:27:00,
2013-02-04 19:32:00,34.5,3.2,30.08,NNE,19,7.0,12.0,26,0.00,,,0.00,meteohub,2013-02-05 02:32:00,
2013-02-04 19:37:00,34.3,3.0,30.08,NNW,335,7.0,12.0,26,0.00,,,0.00,meteohub,2013-02-05 02:37:00,
2013-02-04 19:42:00,34.2,2.8,30.08,NNW,332,9.0,12.0,26,0.00,,,0.00,meteohub,2013-02-05 02:42:00,
2013-02-04 19:47:00,34.0,2.7,30.09,NNE,19,6.0,11.0,26,0.00,,,0.00,meteohub,2013-02-05 02:47:00,
2013-02-04 19:52:00,34.0,2.7,30.09,NNE,27,5.0,11.0,26,0.00,,,0.00,meteohub,2013-02-05 02:52:00,
2013-02-04 19:57:00,33.3,3.7,30.09,NNW,347,4.0,11.0,28,0.00,,,0.00,meteohub,2013-02-05 02:57:00,
2013-02-04 20:02:00,32.5,3.7,30.09,NNW,344,6.0,11.0,29,0.00,,,0.00,meteohub,2013-02-05 03:02:00,
2013-02-04 20:07:00,32.0,4.1,30.09,North,355,7.0,13.0,30,0.00,,,0.00,meteohub,2013-02-05 03:07:00,
2013-02-04 20:12:00,31.6,3.7,30.09,North,10,10.0,13.0,30,0.00,,,0.00,meteohub,2013-02-05 03:12:00,
2013-02-04 20:17:00,31.6,4.5,30.09,NNW,328,6.0,12.0,31,0.00,,,0.00,meteohub,2013-02-05 03:17:00,
2013-02-04 20:22:00,31.6,3.7,30.09,NNE,32,2.0,13.0,30,0.00,,,0.00,meteohub,2013-02-05 03:22:00,
2013-02-04 20:27:00,31.3,3.4,30.10,SSW,198,1.0,13.0,30,0.00,,,0.00,meteohub,2013-02-05 03:27:00,
2013-02-04 20:32:00,31.3,3.4,30.09,SW,228,2.0,13.0,30,0.00,,,0.00,meteohub,2013-02-05 03:32:00,
2013-02-04 20:37:00,31.8,3.2,30.09,SSE,158,3.0,5.0,29,0.00,,,0.00,meteohub,2013-02-05 03:37:00,
2013-02-04 20:42:00,31.8,3.2,30.09,WSW,253,3.0,5.0,29,0.00,,,0.00,meteohub,2013-02-05 03:42:00,
2013-02-04 20:47:00,32.2,2.7,30.08,NNW,329,4.0,5.0,28,0.00,,,0.00,meteohub,2013-02-05 03:47:00,
2013-02-04 20:52:00,32.2,2.7,30.08,WNW,299,5.0,7.0,28,0.00,,,0.00,meteohub,2013-02-05 03:52:00,
2013-02-04 20:57:00,32.2,3.6,30.07,WNW,292,1.0,7.0,29,0.00,,,0.00,meteohub,2013-02-05 03:57:00,
2013-02-04 21:02:00,32.2,3.6,30.08,WSW,249,1.0,7.0,29,0.00,,,0.00,meteohub,2013-02-05 04:02:00,
2013-02-04 21:07:00,32.2,2.7,30.08,NNE,16,10.0,10.0,28,0.00,,,0.00,meteohub,2013-02-05 04:07:00,
2013-02-04 21:12:00,31.6,3.7,30.09,NNW,328,5.0,18.0,30,0.00,,,0.00,meteohub,2013-02-05 04:12:00,
2013-02-04 21:17:00,31.8,3.2,30.09,WSW,250,1.0,18.0,29,0.00,,,0.00,meteohub,2013-02-05 04:17:00,
2013-02-04 21:22:00,32.4,2.8,30.09,WNW,290,1.0,18.0,28,0.00,,,0.00,meteohub,2013-02-05 04:22:00,
2013-02-04 21:27:00,32.2,4.3,30.08,North,8,5.0,6.0,30,0.00,,,0.00,meteohub,2013-02-05 04:27:00,
2013-02-04 21:32:00,31.6,4.5,30.08,NNW,335,3.0,10.0,31,0.00,,,0.00,meteohub,2013-02-05 04:32:00,
2013-02-04 21:37:00,31.6,4.5,30.07,NNW,328,10.0,10.0,31,0.00,,,0.00,meteohub,2013-02-05 04:37:00,
2013-02-04 21:42:00,31.8,4.6,30.07,NNW,335,11.0,12.0,31,0.00,,,0.00,meteohub,2013-02-05 04:42:00,
2013-02-04 21:47:00,32.4,5.0,30.07,NNW,335,13.0,20.0,31,0.00,,,0.00,meteohub,2013-02-05 04:47:00,
2013-02-04 21:52:00,32.5,4.5,30.08,NNW,340,5.0,22.0,30,0.00,,,0.00,meteohub,2013-02-05 04:52:00,
2013-02-04 21:57:00,32.2,4.3,30.09,SSE,155,1.0,22.0,30,0.00,,,0.00,meteohub,2013-02-05 04:57:00,
2013-02-04 22:01:00,31.5,3.6,30.09,SSE,158,1.0,22.0,30,0.00,,,0.00,meteohub,2013-02-05 05:01:00,
2013-02-04 22:02:00,31.3,3.4,30.09,SW,222,2.0,22.0,30,0.00,,,0.00,meteohub,2013-02-05 05:02:00,
2013-02-04 22:03:00,30.9,3.7,30.08,WSW,243,2.0,22.0,31,0.00,,,0.00,meteohub,2013-02-05 05:03:00,
2013-02-04 22:08:00,30.4,4.1,30.09,NW,317,2.0,11.0,32,0.00,,,0.00,meteohub,2013-02-05 05:08:00,
2013-02-04 22:14:00,30.6,4.8,30.08,SE,131,1.0,5.0,33,0.00,,,0.00,meteohub,2013-02-05 05:14:00,
2013-02-04 22:19:00,30.0,4.5,30.08,South,179,8.0,8.0,33,0.00,,,0.00,meteohub,2013-02-05 05:19:00,
2013-02-04 22:25:00,29.7,3.4,30.08,SSW,197,3.0,6.0,32,0.00,,,0.00,meteohub,2013-02-05 05:25:00,
2013-02-04 22:30:00,29.5,3.9,30.08,SW,218,2.0,9.0,33,0.00,,,0.00,meteohub,2013-02-05 05:30:00,
2013-02-04 22:36:00,29.5,3.9,30.07,WSW,256,4.0,8.0,33,0.00,,,0.00,meteohub,2013-02-05 05:36:00,
2013-02-04 22:41:00,29.5,3.9,30.06,SW,236,1.0,6.0,33,0.00,,,0.00,meteohub,2013-02-05 05:41:00,
2013-02-04 22:47:00,29.7,4.1,30.06,SSW,213,3.0,6.0,33,0.00,,,0.00,meteohub,2013-02-05 05:47:00,
2013-02-04 22:52:00,29.8,4.3,30.07,ESE,123,6.0,6.0,33,0.00,,,0.00,meteohub,2013-02-05 05:52:00,
2013-02-04 22:57:00,29.7,4.1,30.09,ESE,109,6.0,7.0,33,0.00,,,0.00,meteohub,2013-02-05 05:57:00,
2013-02-04 23:02:00,28.4,3.6,30.09,WSW,242,2.0,7.0,34,0.00,,,0.00,meteohub,2013-02-05 06:02:00,
2013-02-04 23:07:00,28.2,4.6,30.08,ENE,63,2.0,7.0,36,0.00,,,0.00,meteohub,2013-02-05 06:07:00,
2013-02-04 23:12:00,29.5,5.7,30.09,NNE,32,0.0,6.0,36,0.00,,,0.00,meteohub,2013-02-05 06:12:00,
2013-02-04 23:17:00,28.9,4.6,30.09,SSW,206,4.0,5.0,35,0.00,,,0.00,meteohub,2013-02-05 06:17:00,
2013-02-04 23:22:00,28.8,5.2,30.09,SSW,208,1.0,8.0,36,0.00,,,0.00,meteohub,2013-02-05 06:22:00,
2013-02-04 23:27:00,28.8,5.7,30.09,SW,214,1.0,8.0,37,0.00,,,0.00,meteohub,2013-02-05 06:27:00,
2013-02-04 23:32:00,29.5,5.7,30.09,NNW,340,1.0,8.0,36,0.00,,,0.00,meteohub,2013-02-05 06:32:00,
2013-02-04 23:37:00,29.8,5.5,30.09,WSW,238,3.0,8.0,35,0.00,,,0.00,meteohub,2013-02-05 06:37:00,
2013-02-04 23:42:00,30.0,5.7,30.10,SSW,207,3.0,5.0,35,0.00,,,0.00,meteohub,2013-02-05 06:42:00,
2013-02-04 23:47:00,29.7,5.4,30.09,SW,222,4.0,7.0,35,0.00,,,0.00,meteohub,2013-02-05 06:47:00,
2013-02-04 23:53:00,29.5,5.2,30.09,SW,229,5.0,7.0,35,0.00,,,0.00,meteohub,2013-02-05 06:53:00,
2013-02-04 23:58:00,29.1,4.8,30.09,SW,224,6.0,7.0,35,0.00,,,0.00,meteohub,2013-02-05 06:58:00,